Regional Weather Roundup
Issued by NWS

Home | Current Version | Previous Version | Graphics & Text | Print | Product List | Glossary On
Versions: 1 2 3 4 5 6 7 8 9 10 11 12 13 14 15 16 17 18 19 20 21 22 23 24 25 26 27 28 29 30 31 32 33 34 35 36 37 38 39 40 41 42 43 44 45 46 47 48 49 50
000
ASUS43 KIND 250159
RWRIN

WEATHER ROUNDUP FOR INDIANA
NATIONAL WEATHER SERVICE INDIANAPOLIS IN
1000 PM EDT SUN MAY 24 2015

NOTE: "FAIR" INDICATES FEW OR NO CLOUDS BELOW 12,000 FEET WITH NO
SIGNIFICANT WEATHER AND/OR OBSTRUCTIONS TO VISIBILITY.

* - STATION DOES NOT REPORT WEATHER SUCH AS PRECIPITATION OR FOG.

+ - STATION NOT QUALITY CONTROLLED BY THE NATIONAL WEATHER SERVICE.
    USE DATA WITH CAUTION...ESPECIALLY DEWPOINT AND RELATIVE
    HUMIDITY OBSERVATIONS.

INZ001>003-010>013-019-020-250300-
NORTHWEST INDIANA

CITY           SKY/WX    TMP DP  RH WIND       PRES   REMARKS
GARY /AIRPORT/ MOCLDY    79  61  53 S9        29.95S
RENSSELAER +   PTCLDY    77  61  57 S10       29.99R

$$

LMZ046-743>745-250300-
SOUTHERN LAKE MICHIGAN

STATION/POSITION TIME  TEMP    WIND        PRES    WAVE
                       AIR SEA DIR/SP/G            HT
                 (UTC) (F)     (DEG/KT/KT) (MB)    (FT)
BURNS HARBOR     0100   78     190/ 12/ 22 1014.6S
MICHIGAN CITY    0100   80     150/ 14/ 19   N/A
5NW MICH CITY    0100   69 55  190/ 10/ 12   N/A     1

$$

INZ004-005-014>016-021>024-250300-
NORTH CENTRAL INDIANA

CITY           SKY/WX    TMP DP  RH WIND       PRES   REMARKS
GOSHEN         PTCLDY    75  54  47 S12       30.02R
SOUTH BEND     PTCLDY    77  54  44 S9        30.00R
WARSAW +       PTCLDY    73  54  49 S5        30.03R

$$

INZ006>009-017-018-025>027-250300-
NORTHEAST INDIANA

CITY           SKY/WX    TMP DP  RH WIND       PRES   REMARKS
ANGOLA *+      CLEAR     73  55  53 S8        30.05S
FORT WAYNE     PTCLDY    72  54  53 SE10      30.06S

$$

INZ028-029-035-036-043>045-051>053-250300-
WEST CENTRAL INDIANA

CITY           SKY/WX    TMP DP  RH WIND       PRES   REMARKS
CRAWFORDSVL +  CLEAR     73  54  50 S12       30.03R
GREENCASTLE +  CLEAR     70  57  64 S7        30.04S
LAFAYETTE      CLEAR     75  60  59 S9        30.00R
TERRE HAUTE    PTCLDY    77  61  57 SE14      30.01S

$$

INZ030>032-037>040-046>048-054>057-064-065-250300-
CENTRAL INDIANA

CITY           SKY/WX    TMP DP  RH WIND       PRES   REMARKS
GREENWOOD *+   PTCLDY    75  54  46 SE9       30.06S
INDIANAPOLIS   MOCLDY    76  57  51 S12       30.04R
-EAGLE CREEK   PTCLDY    77  57  50 S8        30.05R
KOKOMO *+      CLEAR     73  55  53 S13       30.04S
MT COMFORT *+  CLEAR     75  43  31 S7        30.07S
SHELBYVILLE    PTCLDY    77  56  48 S10       30.07R

$$

INZ033-034-041-042-049-050-058-059-250300-
EAST CENTRAL INDIANA

CITY           SKY/WX    TMP DP  RH WIND       PRES   REMARKS
MUNCIE         CLEAR     76  54  46 S7        30.07R

$$

INZ060-061-067>069-081>083-085>088-250300-
SOUTHWEST INDIANA

CITY           SKY/WX    TMP DP  RH WIND       PRES   REMARKS
EVANSVILLE     MOCLDY    75  66  73 S8        30.03S
HUNTINGBURG *+ CLOUDY    75  61  60 SE10      30.05S

$$

INZ062-063-066-070>080-084-089>092-250300-
SOUTH CENTRAL AND SOUTHEAST INDIANA

CITY           SKY/WX    TMP DP  RH WIND       PRES   REMARKS
BLOOMINGTON    PTCLDY    74  61  63 SE8       30.05S
MADISON *+     CLEAR     75  52  43 SE7       30.11S
SEYMOUR +      PTCLDY    75  57  53 S7        30.07R

$$



USA.gov is the U.S. government's official web portal to all federal, state and local government web resources and services.